SVRATOUCH Weather Reports


time (UTC)temp
C
wind
direction
speed
KPH
gust
KPH
rain 1hr
cm
rain 24hr
cm
rain mn
cm
humidity
%
barometer
mb
20260508021959 7 0 8.0 0.0 0.00 0.00 0.00 93
20260508012115 7 300 11.3 0.0 0.00 0.00 0.00 93
20260508002019 7 280 11.3 0.0 0.00 0.00 0.00 93
20260507232019 7 310 11.3 0.0 0.00 0.00 0.00 93
20260507222316 8 350 8.0 0.0 0.00 0.00 0.00 87
20260507212027 8 20 8.0 0.0 0.00 0.00 0.00 87
20260507202029 8 10 11.3 0.0 0.00 0.00 0.00 87
20260507192118 10 340 19.3 0.0 0.00 0.00 0.00 76
20260507182026 12 310 11.3 0.0 0.00 0.00 0.00 58
20260507172026 13 290 14.5 0.0 0.00 0.00 0.00 50
20260507162316 13 280 14.5 0.0 0.00 0.00 0.00 54
20260507152033 16 280 19.3 0.0 0.00 0.00 0.00 51
20260507142028 12 260 14.5 0.0 0.00 0.00 0.00 66
20260507132118 16 270 22.5 0.0 0.00 0.00 0.00 48
20260507122026 15 260 14.5 0.0 0.00 0.00 0.00 51
20260507112034 16 250 25.7 0.0 0.00 0.00 0.00 51
20260507102215 13 230 19.3 0.0 0.00 0.00 0.00 58
20260507092027 13 250 22.5 0.0 0.00 0.00 0.00 67
20260507082026 11 250 19.3 0.0 0.00 0.00 0.00 76
20260507072027 11 260 22.5 0.0 0.00 0.00 0.00 81
20260507062026 11 250 14.5 0.0 0.00 0.00 0.00 81
20260507052026 10 260 22.5 0.0 0.00 0.00 0.00 87
20260507042218 10 260 22.5 0.0 0.00 0.00 0.00 93
20260507032027 8 220 8.0 0.0 0.00 0.00 0.00 93